Location: Fort Wayne
(41.1310°N, 85.1290°W)
Time: 15:57:39
(UTC-05:00)

Cosmos 2056 Rocket - Visible Passes

Search period start: 23 February 2017 00:00
Search period end: 05 March 2017 00:00
Orbit: 742 x 801 km, 74.0° (Epoch: 22 February)

Date Brightness Start Highest point End Pass type
(mag) Time Alt. Az. Time Alt. Az. Time Alt. Az.
23 Feb 6.5 03:28:47 10° E 03:28:47 10° E 03:28:53 10° E visible
23 Feb 3.3 05:09:10 80° NW 05:09:10 80° NW 05:14:13 10° NNE visible
23 Feb 5.3 06:50:25 10° WNW 06:52:03 11° NW 06:53:40 10° NNW visible
24 Feb 4.4 04:34:28 44° NE 04:34:28 44° NE 04:38:13 10° NNE visible
24 Feb 4.9 06:14:50 17° WNW 06:15:41 18° NW 06:19:13 10° NNW visible
25 Feb 5.6 03:59:39 23° NE 03:59:39 23° NE 04:01:58 10° NE visible
25 Feb 4.5 05:40:01 28° NW 05:40:01 28° NW 05:43:56 10° N visible
26 Feb 6.4 03:24:44 12° NE 03:24:44 12° NE 03:25:22 10° NE visible
26 Feb 4.5 05:05:06 33° NNW 05:05:06 33° NNW 05:08:21 10° N visible
27 Feb 5.0 04:30:07 28° NNE 04:30:07 28° NNE 04:32:33 10° NNE visible
27 Feb 5.5 06:10:28 11° NW 06:10:28 11° NW 06:11:39 10° NW visible
28 Feb 5.7 03:55:03 19° NNE 03:55:03 19° NNE 03:56:34 10° NNE visible
28 Feb 5.3 05:35:25 16° NW 05:35:25 16° NW 05:37:27 10° NNW visible
01 Mar 6.4 03:19:57 12° NE 03:19:57 12° NE 03:20:22 10° NE visible
01 Mar 5.3 05:00:18 19° NNW 05:00:18 19° NNW 05:02:13 10° N visible
02 Mar 5.5 04:25:08 19° N 04:25:08 19° N 04:26:39 10° N visible
03 Mar 6.0 03:49:58 15° NNE 03:49:58 15° NNE 03:50:53 10° NNE visible
04 Mar 6.4 03:14:44 11° NNE 03:14:44 11° NNE 03:14:55 10° NNE visible
04 Mar 5.8 04:55:04 12° NNW 04:55:04 12° NNW 04:55:40 10° NNW visible
